COSMOS 2251 DEB, 33848

Orbit data source: Space-Track

COSMOS 2251 DEB, 33848 is space debris in LEO originally from a launch on Wed, 16 Jun 1993 UTC launched from the Plesetsk Missile And Space Complex (PKMTR). The debris from Iridium 33, an American commercial communications satellite, has been tracked extensively since its accidental collision with the defunct Russian satellite Cosmos 2251 in 2009. This event, occurring at high speed in low Earth orbit (LEO), generated thousands of pieces of space debris, significantly increasing the risk of further collisions. The Iridium 33 debris cloud has impacted space traffic management and orbital debris mitigation strategies, making it a subject of ongoing study in space situational awareness.

Loading next visibility...
Identifier
33848, 1993-036CR
Orbit
LEO
Country
Flag of CISCIS
Related business
Manufacturer
Unknown
Mission
Spacecraft
Bus & Motor
Unknown
Mass
Unknown
Launch date (UTC)
1993-06-16 (33 years ago)
Launch vehicle
Unknown
Launch site
Plesetsk Missile And Space Complex (PKMTR)
Object type
Payload
Rocket body
Debris
Shape & HBR
Unknown shape, 0.1 m
Radar Cross Section
Small (<0.1 m²)

Expand to show TLE details & history
Last TLE update: 12 hours ago

TLE from 12 hours ago
0 COSMOS 2251 DEB
1 33848U 93036CR  26037.30060507  .00003512  00000-0  10115-2 0  9997
2 33848  74.0291 254.2238 0043104 299.0645 180.0583 14.44562635886337
Epoch: 2026-02-06T07:12Z
TLE epoch observation values (Epoch: 2026-02-06T07:12:52.278Z)
Latitude
57.23324°
Longitude
163.31533°
Altitude
783.418 km
Speed
7.452 km/s
True Right ascension
03h 11m 53s
True Declination
57° 04' 37"
Sunlit
Object was in daylight at epoch
Visualization orbit readout
Latitude
Unknown
Longitude
Unknown
Altitude
Unknown
Speed
Unknown
Apparent Right ascension
Unknown
Apparent Declination
Unknown
Sunlit
N/A
Visualization observer readout
Local Sidereal Time
21:14:45
Azimuth
Unknown
Elevation
Unknown
Doppler factor
Unknown
Orbital elements
Apogee altitude
771.765 km
Perigee altitude
710.392 km
Semi-major axis
7,119.215 km
Eccentricity
0.00431
Inclination
74.0291°
RAAN
254.2238°
Arg. of periapsis
299.0645°
True anomaly
180.0578°
Mean anomaly
180.0583°
Eccentric anomaly
180.05805°
Mean motion
3.61322 °/min
Orbital period
99.63 mins
BSTAR
0.0010115
Loading maneuver chart data...
Computing Atmospheric mass density...

Documentation

Showing up to 5 results
|